Regional Weather Roundup
Issued by NWS Albany, NY

Home | Current Version | Previous Version | Graphics & Text | Print | Product List | Glossary Off
Versions: 1 2 3 4 5 6 7 8 9 10 11 12 13 14 15 16 17 18 19 20 21 22 23 24 25 26 27

000
ASUS41 KALY 191810
RWRALY

NEW YORK STATE HOURLY WEATHER ROUNDUP
NATIONAL WEATHER SERVICE ALBANY NY
200 PM EDT TUE SEP 19 2017

NOTE: "FAIR" INDICATES FEW OR NO CLOUDS BELOW 12,000 FEET WITH NO
SIGNIFICANT WEATHER AND/OR NO OBSTRUCTIONS TO VISIBILITY.

NYZ032-033-038>043-046>054-057>066-NYZ062>081-082-084-191900-
EAST


CITY           SKY/WX    TMP DP  RH WIND       PRES   REMARKS
ALBANY         MOSUNNY   79  62  56 CALM      30.04F
GLENS FALLS    MOSUNNY   77  62  59 CALM      30.05F
POUGHKEEPSIE   MOSUNNY   78  63  59 NE14G22   29.99F
NEWBURGH       PTSUNNY   75  66  73 E12G23    30.02F
MONTGOMERY     PTSUNNY   76  65  68 NE14      30.00F
WHITE PLAINS   PTSUNNY   75  63  66 NE12G18   29.96F
ISLIP          LGT RAIN  68  67  96 N16       29.93F FOG
NEW YORK CITY  CLOUDY    77  65  66 NE22G29   29.94F
CENTRAL PARK   CLOUDY    77  63  61 NE10G20   29.97F
$$

NYZ005>009-017-018-044>046-055-056-191900-
CENTRAL


CITY           SKY/WX    TMP DP  RH WIND       PRES   REMARKS
FULTON         SUNNY     78  62  57 CALM      30.02F
SYRACUSE       MOSUNNY   78  65  63 VRB6      30.01F
ROME           MOSUNNY   77  64  64 S5        30.04F
ELMIRA         SUNNY     78  63  59 VRB5      30.02F
BINGHAMTON     SUNNY     75  54  47 VRB3      30.05F
MONTICELLO     SUNNY     76  61  59 E12G17    30.05F
$$

NYZ026>034-041>043-087-191900-
NORTH


CITY           SKY/WX    TMP DP  RH WIND       PRES   REMARKS
WATERTOWN      SUNNY     82  66  58 N7        30.02F
FORT DRUM      NOT AVBL
OGDENSBURG     FAIR      84  66  54 W5        30.03F
MASSENA        SUNNY     82  68  62 N5        30.04F
SARANAC LAKE   MOSUNNY   77  61  57 E8        30.07F
PLATTSBURGH    SUNNY     78  61  55 SE9       30.06F
$$

NYZ001>004-010>016-019>021-085-191900-
WEST


CITY           SKY/WX    TMP DP  RH WIND       PRES   REMARKS
NIAGARA FALLS  MOSUNNY   82  64  54 NE3       30.00F
BUFFALO        PTSUNNY   80  63  55 CALM      30.01F
DUNKIRK        PTSUNNY   75  66  73 N10       30.02F
JAMESTOWN      MOSUNNY   75  62  64 CALM      30.06F
WELLSVILLE     CLOUDY    74  57  55 CALM      30.09F
ROCHESTER      MOSUNNY   81  64  56 CALM      30.01F
PENN YAN       SUNNY     76  62  62 CALM      30.04F
$$

             KEY
       WCI = WIND CHILL INDEX
       VSB = VISIBILITY
       HX  = HEAT INDEX
$$




USA.gov is the U.S. government's official web portal to all federal, state and local government web resources and services.